Location: Aalen
(48.8330°N, 10.1000°E)
Time: 13:19:18
(UTC+02:00)

DOVE 4 - Visible Passes

Search period start: 28 March 2023 00:00
Search period end: 07 April 2023 00:00
Orbit: 586 x 791 km, 97.8° (Epoch: 27 March)

Date Brightness Start Highest point End Pass type
(mag) Time Alt. Az. Time Alt. Az. Time Alt. Az.
28 Mar ? 00:47:33 10° N 00:49:18 21° N 00:49:18 21° N visible
28 Mar ? 23:48:36 10° NNE 23:49:42 16° NNE 23:49:42 16° NNE visible
29 Mar ? 01:26:32 10° N 01:28:18 18° NNW 01:28:18 18° NNW visible
30 Mar ? 00:26:58 10° NNE 00:28:42 22° N 00:28:42 22° N visible
30 Mar ? 02:06:14 10° NNW 02:07:17 12° NW 02:07:17 12° NW visible
30 Mar ? 23:28:21 10° NNE 23:29:04 14° NE 23:29:04 14° NE visible
31 Mar ? 01:05:43 10° N 01:07:40 22° NNW 01:07:40 22° NNW visible
01 Apr ? 00:06:27 10° NNE 00:08:03 21° NNE 00:08:03 21° NNE visible
01 Apr ? 01:44:56 10° NNW 01:46:39 16° NW 01:46:39 16° NW visible
01 Apr ? 23:08:18 10° NE 23:08:24 10° NE 23:08:24 10° NE visible
02 Apr ? 00:44:58 10° N 00:47:00 24° N 00:47:00 24° N visible
02 Apr ? 23:46:00 10° NNE 23:47:21 18° NNE 23:47:21 18° NNE visible
03 Apr ? 01:23:53 10° N 01:25:57 20° NNW 01:25:57 20° NNW visible
04 Apr ? 00:24:18 10° NNE 00:26:18 25° N 00:26:18 25° N visible
04 Apr ? 02:03:36 10° NNW 02:04:54 12° NW 02:04:54 12° NW visible
04 Apr ? 23:25:42 10° NE 23:26:38 15° NE 23:26:38 15° NE visible
05 Apr ? 01:02:59 10° N 01:05:14 24° NNW 01:05:14 24° NNW visible
06 Apr ? 00:03:42 10° NNE 00:05:33 23° NNE 00:05:33 23° NNE visible
06 Apr ? 01:42:10 10° NNW 01:44:09 17° NW 01:44:09 17° NW visible
06 Apr ? 23:05:37 10° NE 23:05:52 11° NE 23:05:52 11° NE visible
